Hourly Data Report for July 01, 2021

CARIBOU POINT (AUT)
NOVA SCOTIA
Current Station Operator: ECCC - MSC

45°46'00.000" N
62°41'00.000" W
2.40 m
8200774
71415
WBK

Download Data

Hourly Data (July 2021)
Hourly Data Report for July 1, 2021
TIME
LST
Temp Definition
°C
Dew Point Definition
°C
Rel Hum Definition
%
Precip. Amount Definition
mm

Wind Dir Definition
10's deg

Wind Spd Definition
km/h
Visibility Definition
km
Stn Press Definition
kPa
Hmdx Definition


Wind Chill Definition


Weather Definition


00:00 18.8 18.2 96 0.0 29 5   100.62     LegendNANA
01:00 18.8 18.3 97 0.0 30 3   100.60     LegendNANA
02:00 17.2 16.8 98 6.4 16 6   100.55     LegendNANA
03:00 18.1 17.7 98 0.3 17 12   100.44     LegendNANA
04:00 18.9 18.5 98 0.0 20 11   100.36     LegendNANA
05:00 19.6 19.2 98 0.2 22 7   100.34     LegendNANA
06:00 20.9 19.9 94 0.0 23 8   100.39 28   LegendNANA
07:00 19.9 18.5 92 0.0 36 4   100.43     LegendNANA
08:00 19.9 18.9 94 0.0 30 8   100.47     LegendNANA
09:00 21.1 20.3 96 0.0 27 7   100.49 29   LegendNANA
10:00 22.1 19.8 87 0.0 27 9   100.51 30   LegendNANA
11:00 19.0 18.0 94 0.0 33 20   100.53     LegendNANA
12:00 18.9 17.9 93 0.0 32 18   100.58     LegendNANA
13:00 19.5 18.2 93 0.0 30 16   100.58     LegendNANA
14:00 20.6 18.8 89 0.0 29 18   100.61 27   LegendNANA
15:00 19.5 18.1 92 0.0 29 26   100.68     LegendNANA
16:00 18.9 17.8 93 0.0 28 31   100.73     LegendNANA
17:00 18.6 17.8 95 0.0 29 30   100.73     LegendNANA
18:00 18.4 17.5 94 0.0 28 24   100.81     LegendNANA
19:00 16.9 15.7 93 0.0 31 33   100.88     LegendNANA
20:00 16.3 15.2 93 0.0 32 33   100.94     LegendNANA
21:00 15.7 14.7 94 0.0 31 28   101.01     LegendNANA
22:00 15.3 14.4 94 0.0 32 28   101.06     LegendNANA
23:00 14.6 13.7 94 0.0 32 26   101.08     LegendNANA

Notes on Data Quality.

Legend

  • E = Estimated
  • M = Missing
  • NA = Not Available*
  • [empty] = Indicates an unobserved value
Date modified: